Regional Weather Roundup
Issued by NWS

Home | Current Version | Previous Version | Text Only | Print | Product List | Glossary Off
Versions: 1 2 3 4 5 6 7 8 9 10 11 12 13 14 15 16 17 18 19 20 21 22 23 24 25 26 27 28 29 30 31 32 33 34 35 36 37 38 39 40 41 42 43 44 45 46 47 48 49 50

000
ASUS43 KLOT 010421
RWRIL

ILLINOIS REGIONAL WEATHER ROUNDUP
NATIONAL WEATHER SERVICE CHICAGO/ROMEOVILLE IL
1100 PM CDT FRI JUL 31 2015

NOTE: "FAIR" INDICATES FEW OR NO CLOUDS BELOW 12,000 FEET WITH NO
SIGNIFICANT WEATHER AND/OR OBSTRUCTIONS TO VISIBILITY.

* THESE STATIONS ARE NOT UNDER NWS QUALITY CONTROL. THEY ALSO MAY NOT
  REPORT WEATHER SUCH AS PRECIPITATION OR FOG.

ILZ001-002-007-009-015-016-024-010500-
NORTHWEST ILLINOIS

CITY           SKY/WX    TMP DP  RH WIND       PRES   REMARKS
MOLINE         CLEAR     66  59  78 W3        30.03R
STERLING*      CLEAR     64  57  77 W5        30.00R
SAVANNA*       CLEAR     67  59  73 CALM      30.02R
$$

ILZ003-004-008-010-011-017-018-010500-
NORTH CENTRAL ILLINOIS

CITY           SKY/WX    TMP DP  RH WIND       PRES   REMARKS
ROCKFORD       PTCLDY    67  53  61 CALM      30.02R
FREEPORT*      CLEAR     60  54  79 W3        30.03S
ROCHELLE*      CLEAR     62  57  84 W5        30.02R
DE KALB*       CLEAR     66  54  63 NW5       30.02R
PERU*          CLEAR     67  57  71 W7        30.02S
$$

ILZ005-006-012>014-019>023-010500-
NORTHEAST ILLINOIS

CITY           SKY/WX    TMP DP  RH WIND       PRES   REMARKS
CHICAGO-OHARE  CLEAR     72  52  49 NW6       29.97S
CHICAGO-MIDWAY CLEAR     75  50  41 W7        29.97S
AURORA         CLEAR     62  55  77 NW6       30.00R
LANSING*       CLEAR     70  51  50 CALM      29.98S
JOLIET*        CLEAR     71  56  58 CALM      29.99S
WAUKEGAN       CLEAR     67  53  61 W3        29.97R
DUPAGE AIRPORT CLEAR     69  53  56 W7        29.99R
KANKAKEE*      CLEAR     65  61  85 SW5       30.00S
WHEELING       CLEAR     72  51  47 NW6       29.98S
MORRIS*        CLEAR     64  59  83 NW6       29.99S
ROMEOVILLE*    CLEAR     67  52  58 NW6       29.99S
NORTHERLY ISL    N/A     77  49  37 NW6         N/A
$$

LMZ740>746-010500-
SOUTHERN LAKE MICHIGAN

STATION/POSITION SKY/WX   TEMP    WIND        PRES    VSBY  WAVE
                          AIR SEA DIR/SP/G                  HT/PER
                          (F)     (DEG/KT/KT) (MB)    (MI)  (FT/S)
HARRISON CRIB              76     300/ 10/ 13   N/A
BURNHAM HARBOR             76     310/  5/  9   N/A
CALUMET HARBOR             77     290/  3/  7   N/A
BURNS HARBOR               75     320/  7/  8 1015.2R
MICHIGAN CITY              74     270/ 11/ 12   N/A
MICHIGAN CITY 6N           75 74  310/  8/ 12   N/A           2/ 5
ST. JOSEPH                 74 74  320/ 10/ 10   N/A           2/ 5
$$

ILZ025>027-034>036-040-047-049-050-058-095>099-010500-
WEST-CENTRAL ILLINOIS

CITY           SKY/WX    TMP DP  RH WIND       PRES   REMARKS
QUINCY         PTCLDY    75  68  78 CALM      30.05R
GALESBURG*     CLEAR     68  59  72 W6        30.06R
MACOMB*        CLEAR     69  64  84 N5        30.07R
JACKSONVILLE*  PTCLDY    74  70  87 CALM      30.05R
PITTSFIELD*    PTCLDY    74  70  86 CALM      30.07R
$$

ILZ028>032-037-038-041>044-048-051>054-059>061-010500-
CENTRAL ILLINOIS

CITY           SKY/WX    TMP DP  RH WIND       PRES   REMARKS
PONTIAC        CLEAR     67  62  86 W5        30.02S
BLOOMINGTON    CLEAR     74  59  59 NW9       30.04S
DECATUR        CLEAR     77  61  57 W5        30.03R
PEORIA         CLEAR     75  59  57 NW5       30.03S
LACON*         CLEAR     72  56  57 NW3       30.02R
LINCOLN*       CLEAR     75  63  64 CALM      30.02S
SPRINGFIELD    MOCLDY    74  70  87 W6        30.04R
TAYLORVILLE    PTCLDY    73  68  83 NW5       30.04R
$$

ILZ033-039-045-046-055>057-062-063-010500-
EAST-CENTRAL ILLINOIS

CITY           SKY/WX    TMP DP  RH WIND       PRES   REMARKS
CHAMPAIGN      CLEAR     69  62  78 NW5       30.02S
DANVILLE*      CLEAR     68  61  77 NW6       29.98S
RANTOUL*       CLEAR     69  64  83 W6        30.01S
MATTOON        CLEAR     74  62  66 W3        30.02R
PARIS*         CLEAR     67  63  86 CALM      30.02S
$$

ILZ079-100>102-010500-
SOUTHWEST ILLINOIS

CITY           SKY/WX    TMP DP  RH WIND       PRES   REMARKS
ALTON          CLEAR     70  67  90 CALM      30.05R
BELLEVILLE     CLEAR     73  73  98 W2        30.04R
CAHOKIA*       CLEAR     74  67  78 CALM      30.04R
SPARTA*        CLEAR     77  66  68 CALM      30.05S
$$

ILZ064>066-069>071-074>076-080>082-084>086-088>090-092>094-010500-
SOUTH-CENTRAL ILLINOIS

CITY           SKY/WX    TMP DP  RH WIND       PRES   REMARKS
CARBONDALE     CLEAR     75  72  90 CALM      30.05R
CAIRO*         CLEAR     73  72  96 CALM      30.05S
EFFINGHAM*     PTCLDY    73  68  83 CALM      30.04S
MARION         CLEAR     77  72  83 CALM      30.05S
MT. VERNON     CLEAR     70  63  78 CALM      30.05R
CENTRALIA*     CLEAR     69  66  89 CALM      30.05R
SALEM*         CLEAR     70  67  90 CALM      30.04S
METROPOLIS*    CLEAR     73  73 100 CALM      30.06R FOG
$$

ILZ067-068-072-073-078-083-087-091-010500-
SOUTHEAST ILLINOIS

CITY           SKY/WX    TMP DP  RH WIND       PRES   REMARKS
LAWRENCEVILLE  PTCLDY    75  69  81 CALM      30.01F
FLORA*         PTCLDY    73  68  84 W3        30.03S
FAIRFIELD*     CLEAR     71  69  93 CALM      30.03R
HARRISBURG*    CLEAR     72  71  97 CALM      30.05S
ROBINSON*      PTCLDY    69  67  94 CALM      30.02S
CARMI*         CLEAR     73  67  82 CALM      30.02S
$$

ABBREVIATIONS USED IN REMARKS
   TC - TEMPERATURE IN CELSIUS
  WCI - WIND CHILL INDEX
   HX - HEAT INDEX
  VSB - VISIBILITY
$$



USA.gov is the U.S. government's official web portal to all federal, state and local government web resources and services.